Flag for Australia Weather past 2 weeks in Alice Springs, Northern Territory, Australia

Now
95 °F

Sunny.


Feels Like: 91 °F
Forecast: 69 / 89 °F
Wind: 7 mph from Southeast

Location: Alice Springs Aerodrome

Current Time: Feb 1, 2015 at 1:35:18 PM

Latest Report: Feb 1, 2015 at 12:30 PM


Visibility: N/A

Pressure: 29.89 "Hg

Humidity: 14%

Dew point: 39 °F

Location of Alice SpringsLocation

Historic Weather in Alice Springs — Graph

°F

Alice Springs temperature yesterday

Maximum temperature yesterday: 97 °F (at 3:30 PM)
Minimum temperature yesterday: 64 °F (at 6:00 AM)
Average temperature yesterday: 82 °F

Past Weeks' High & Low Weather Summary

 TemperatureHumidityPressure
High106 °F (Jan 20, 1:00 PM)73% (Jan 23, 5:30 AM)30.01 "Hg (Jan 23, 5:30 AM)
Low57 °F (Jan 29, 6:30 AM)8% (Jan 20, 5:30 PM)29.71 "Hg (Jan 23, 4:30 PM)
Average83 °F32%29.85 "Hg
* Reported Jan 17 11:30 AM — Feb 1 12:00 Noon, Alice Springs, Weather by CustomWeather, © 2014

Note: Actual official high and low records may vary slightly from our data, if they occured in-between our weather recording intervals... More about our weather records

Advertising

Alice Springs weather history for previous 24 hours

 ConditionsComfort  
Time TempWeatherWind HumidityBarometerVisibility
12:00 PM
Feb 1
95 °FPassing clouds.8 mph15%29.89 "HgN/A
11:30 AM93 °FPassing clouds.6 mph16%29.92 "HgN/A
11:00 AM93 °FPassing clouds.7 mph16%29.92 "HgN/A
10:30 AM91 °FPassing clouds.7 mph17%29.92 "HgN/A
10:00 AM90 °FSunny.7 mph18%29.92 "Hg10 mi
9:30 AM88 °FSunny.9 mph19%29.92 "Hg10 mi
8:30 AM82 °FSunny.7 mph23%29.92 "Hg10 mi
8:00 AM81 °FSunny.7 mph24%29.92 "Hg10 mi
7:30 AM75 °FSunny.No wind39%29.92 "Hg10 mi
7:00 AM70 °FSunny.2 mph46%29.92 "Hg10 mi
6:30 AM66 °FSunny.6 mph56%29.89 "Hg10 mi
6:00 AM66 °FSunny.6 mph56%29.89 "Hg10 mi
5:30 AM66 °FClear.5 mph56%29.86 "HgN/A
5:00 AM66 °FClear.No wind56%29.86 "HgN/A
4:30 AM68 °FClear.No wind49%29.86 "HgN/A
3:30 AM68 °FClear.5 mph49%29.86 "HgN/A
3:00 AM73 °FClear.6 mph36%29.83 "HgN/A
2:30 AM73 °FClear.7 mph33%29.83 "HgN/A
2:00 AM73 °FClear.8 mph36%29.83 "HgN/A
1:30 AM73 °FClear.7 mph38%29.86 "HgN/A
12:30 AM72 °FClear.3 mph53%29.86 "HgN/A
11:30 PM
Jan 31
75 °FClear.5 mph39%29.89 "HgN/A
11:00 PM79 °FClear.6 mph30%29.89 "HgN/A
10:30 PM79 °FClear.6 mph32%29.89 "HgN/A
10:00 PM79 °FClear.7 mph32%29.89 "HgN/A
9:30 PM81 °FClear.7 mph28%29.86 "HgN/A
9:00 PM81 °FClear.8 mph28%29.86 "HgN/A
8:30 PM82 °FClear.7 mph28%29.86 "HgN/A
8:00 PM86 °FClear.8 mph22%29.86 "HgN/A
7:30 PM88 °FClear.8 mph21%29.83 "HgN/A
7:00 PM91 °FClear.10 mph16%29.83 "HgN/A
6:30 PM93 °FSunny.10 mph16%29.83 "HgN/A
6:00 PM95 °FSunny.13 mph15%29.80 "HgN/A
5:30 PM95 °FSunny.13 mph14%29.80 "HgN/A
5:00 PM97 °FPassing clouds.10 mph13%29.80 "HgN/A
4:30 PM95 °FPassing clouds.7 mph14%29.80 "HgN/A
4:00 PM97 °FPassing clouds.10 mph13%29.80 "HgN/A
3:30 PM97 °FSunny.8 mph13%29.83 "Hg10 mi
3:00 PM95 °FPassing clouds.5 mph15%29.83 "HgN/A
2:30 PM95 °FPassing clouds.7 mph15%29.83 "HgN/A
1:30 PM95 °FPassing clouds.10 mph15%29.83 "HgN/A
Weather by CustomWeather, © 2014

See weather overviewHow to use our weather pages